| time (UTC) | temp F | wind direction | speed knots | gust knots | rain 1hr in | rain 24hr in | rain mn in | humidity % | barometer mb |
| 20260507213037 | 53 | 124 | 18.2 | 22.6 | 0.00 | 0.00 | 0.00 | 83 | 1014.1 |
| 20260507212526 | 54 | 129 | 18.2 | 23.5 | 0.00 | 0.00 | 0.00 | 84 | 1014.1 |
| 20260507212017 | 53 | 120 | 20.0 | 23.5 | 0.00 | 0.00 | 0.00 | 83 | 1014.1 |
| 20260507211506 | 53 | 121 | 17.4 | 22.6 | 0.00 | 0.00 | 0.00 | 84 | 1014.0 |
| 20260507211057 | 53 | 122 | 20.0 | 23.5 | 0.00 | 0.00 | 0.00 | 83 | 1014.0 |
| 20260507210550 | 53 | 118 | 20.0 | 23.5 | 0.00 | 0.00 | 0.00 | 84 | 1014.0 |
| 20260507210041 | 53 | 123 | 17.4 | 21.7 | 0.00 | 0.00 | 0.00 | 85 | 1013.9 |
| 20260507205528 | 54 | 119 | 17.4 | 21.7 | 0.00 | 0.00 | 0.00 | 85 | 1013.9 |
| 20260507205017 | 53 | 115 | 19.1 | 21.7 | 0.00 | 0.00 | 0.00 | 84 | 1013.9 |
| 20260507204507 | 54 | 115 | 18.2 | 21.7 | 0.00 | 0.00 | 0.00 | 84 | 1013.9 |
| 20260507204102 | 53 | 120 | 17.4 | 21.7 | 0.00 | 0.00 | 0.00 | 84 | 1013.9 |
| 20260507203538 | 53 | 127 | 15.6 | 20.9 | 0.00 | 0.00 | 0.00 | 84 | 1013.9 |
| 20260507203040 | 53 | 126 | 16.5 | 19.1 | 0.00 | 0.00 | 0.00 | 84 | 1013.8 |
| 20260507202520 | 53 | 131 | 16.5 | 18.2 | 0.00 | 0.00 | 0.00 | 84 | 1013.7 |
| 20260507202007 | 54 | 126 | 14.8 | 20.0 | 0.00 | 0.00 | 0.00 | 85 | 1013.7 |
| 20260507201559 | 53 | 127 | 16.5 | 20.0 | 0.00 | 0.00 | 0.00 | 84 | 1013.7 |
| 20260507201050 | 53 | 131 | 17.4 | 20.0 | 0.00 | 0.00 | 0.00 | 84 | 1013.6 |
| 20260507200542 | 53 | 128 | 17.4 | 20.9 | 0.00 | 0.00 | 0.00 | 85 | 1013.5 |
| 20260507200030 | 53 | 130 | 18.2 | 20.9 | 0.00 | 0.00 | 0.00 | 86 | 1013.4 |
| 20260507195519 | 53 | 134 | 17.4 | 20.9 | 0.00 | 0.00 | 0.00 | 86 | 1013.3 |
| 20260507195009 | 53 | 126 | 16.5 | 19.1 | 0.00 | 0.00 | 0.00 | 86 | 1013.2 |
| 20260507194620 | 53 | 123 | 16.5 | 18.2 | 0.00 | 0.00 | 0.00 | 86 | 1013.2 |
| 20260507194051 | 53 | 128 | 15.6 | 20.0 | 0.00 | 0.00 | 0.00 | 86 | 1013.2 |
| 20260507193529 | 53 | 123 | 15.6 | 20.0 | 0.00 | 0.00 | 0.00 | 86 | 1013.2 |
| 20260507193020 | 53 | 128 | 15.6 | 20.9 | 0.00 | 0.00 | 0.00 | 86 | 1013.2 |
| 20260507192508 | 53 | 125 | 17.4 | 20.0 | 0.00 | 0.00 | 0.00 | 85 | 1013.1 |
| 20260507192100 | 53 | 122 | 16.5 | 20.9 | 0.00 | 0.00 | 0.00 | 85 | 1013.1 |
| 20260507191551 | 53 | 119 | 17.4 | 20.9 | 0.00 | 0.00 | 0.00 | 85 | 1013.1 |
| 20260507191040 | 54 | 119 | 14.8 | 18.2 | 0.00 | 0.00 | 0.00 | 85 | 1013.2 |
| 20260507190530 | 54 | 128 | 14.8 | 17.4 | 0.00 | 0.00 | 0.00 | 85 | 1013.1 |
| 20260507190020 | 54 | 119 | 13.9 | 17.4 | 0.00 | 0.00 | 0.00 | 85 | 1013.1 |
| 20260507185510 | 53 | 127 | 15.6 | 17.4 | 0.00 | 0.00 | 0.00 | 85 | 1013.2 |
| 20260507185101 | 54 | 128 | 13.9 | 17.4 | 0.00 | 0.00 | 0.00 | 85 | 1013.2 |
| 20260507184552 | 53 | 125 | 14.8 | 17.4 | 0.00 | 0.00 | 0.00 | 85 | 1013.2 |
| 20260507184042 | 53 | 126 | 13.9 | 15.6 | 0.00 | 0.00 | 0.00 | 85 | 1013.2 |
| 20260507183520 | 53 | 135 | 13.9 | 15.6 | 0.00 | 0.00 | 0.00 | 85 | 1013.2 |
| 20260507183012 | 54 | 128 | 13.0 | 15.6 | 0.00 | 0.00 | 0.00 | 85 | 1013.2 |
| 20260507182605 | 54 | 125 | 13.0 | 15.6 | 0.00 | 0.00 | 0.00 | 85 | 1013.1 |
| 20260507182052 | 54 | 117 | 12.2 | 14.8 | 0.00 | 0.00 | 0.00 | 85 | 1013.2 |
| 20260507181543 | 54 | 124 | 13.0 | 15.6 | 0.00 | 0.00 | 0.00 | 85 | 1013.1 |
| 20260507181031 | 54 | 136 | 13.0 | 15.6 | 0.00 | 0.00 | 0.00 | 85 | 1013.1 |
| 20260507180522 | 54 | 133 | 12.2 | 14.8 | 0.00 | 0.00 | 0.00 | 85 | 1013.1 |
| 20260507180012 | 54 | 139 | 12.2 | 14.8 | 0.00 | 0.00 | 0.00 | 85 | 1013.2 |
| 20260507175601 | 54 | 129 | 12.2 | 13.9 | 0.00 | 0.00 | 0.00 | 85 | 1013.1 |
| 20260507175051 | 54 | 134 | 11.3 | 13.0 | 0.00 | 0.00 | 0.00 | 85 | 1013.1 |
| 20260507174545 | 54 | 134 | 11.3 | 13.0 | 0.00 | 0.00 | 0.00 | 84 | 1013.1 |
| 20260507174022 | 54 | 128 | 11.3 | 13.0 | 0.00 | 0.00 | 0.00 | 84 | 1013.1 |
| 20260507173510 | 54 | 126 | 9.6 | 11.3 | 0.00 | 0.00 | 0.00 | 84 | 1013.1 |
| 20260507173136 | 54 | 134 | 9.6 | 11.3 | 0.00 | 0.00 | 0.00 | 85 | 1013.1 |
| 20260507172551 | 54 | 123 | 10.4 | 11.3 | 0.00 | 0.00 | 0.00 | 84 | 1013.1 |
| 20260507172041 | 54 | 128 | 9.6 | 11.3 | 0.00 | 0.00 | 0.00 | 85 | 1013.1 |
| 20260507171530 | 54 | 144 | 8.7 | 11.3 | 0.00 | 0.00 | 0.00 | 84 | 1013.2 |
| 20260507171019 | 54 | 136 | 8.7 | 12.2 | 0.00 | 0.00 | 0.00 | 84 | 1013.3 |
| 20260507170510 | 53 | 132 | 9.6 | 12.2 | 0.00 | 0.00 | 0.00 | 85 | 1013.3 |
| 20260507170105 | 54 | 138 | 9.6 | 11.3 | 0.00 | 0.00 | 0.00 | 85 | 1013.2 |
| 20260507165550 | 54 | 125 | 8.7 | 11.3 | 0.00 | 0.00 | 0.00 | 85 | 1013.2 |
| 20260507165040 | 54 | 134 | 9.6 | 11.3 | 0.00 | 0.00 | 0.00 | 85 | 1013.3 |
| 20260507164534 | 54 | 134 | 9.6 | 10.4 | 0.00 | 0.00 | 0.00 | 85 | 1013.3 |
| 20260507164010 | 53 | 133 | 8.7 | 10.4 | 0.00 | 0.00 | 0.00 | 85 | 1013.3 |
| 20260507163603 | 54 | 131 | 8.7 | 10.4 | 0.00 | 0.00 | 0.00 | 86 | 1013.3 |
| 20260507163052 | 53 | 138 | 9.6 | 10.4 | 0.00 | 0.00 | 0.00 | 85 | 1013.3 |
| 20260507162542 | 53 | 130 | 8.7 | 10.4 | 0.00 | 0.00 | 0.00 | 86 | 1013.2 |
| 20260507162031 | 54 | 127 | 8.7 | 10.4 | 0.00 | 0.00 | 0.00 | 86 | 1013.2 |
| 20260507161521 | 54 | 134 | 8.7 | 10.4 | 0.00 | 0.00 | 0.00 | 85 | 1013.3 |
| 20260507161010 | 54 | 126 | 8.7 | 10.4 | 0.00 | 0.00 | 0.00 | 85 | 1013.3 |
| 20260507160603 | 54 | 130 | 8.7 | 12.2 | 0.00 | 0.00 | 0.00 | 85 | 1013.3 |
| 20260507160100 | 54 | 137 | 9.6 | 12.2 | 0.00 | 0.00 | 0.00 | 85 | 1013.4 |
| 20260507155542 | 54 | 144 | 9.6 | 11.3 | 0.00 | 0.00 | 0.00 | 85 | 1013.4 |
| 20260507155032 | 54 | 146 | 9.6 | 11.3 | 0.00 | 0.00 | 0.00 | 85 | 1013.4 |
| 20260507154525 | 54 | 140 | 8.7 | 13.0 | 0.00 | 0.00 | 0.00 | 86 | 1013.4 |
| 20260507154001 | 54 | 142 | 9.6 | 13.0 | 0.00 | 0.00 | 0.00 | 86 | 1013.4 |
| 20260507153552 | 54 | 155 | 8.7 | 13.0 | 0.00 | 0.00 | 0.00 | 85 | 1013.5 |
| 20260507153043 | 54 | 153 | 10.4 | 13.0 | 0.00 | 0.00 | 0.00 | 85 | 1013.5 |
| 20260507152533 | 54 | 155 | 7.8 | 13.0 | 0.00 | 0.00 | 0.00 | 85 | 1013.6 |
| 20260507152031 | 54 | 147 | 8.7 | 13.0 | 0.00 | 0.00 | 0.00 | 85 | 1013.6 |
| 20260507151514 | 54 | 161 | 10.4 | 13.9 | 0.00 | 0.00 | 0.00 | 85 | 1013.7 |
| 20260507151001 | 54 | 150 | 10.4 | 13.0 | 0.00 | 0.00 | 0.00 | 85 | 1013.7 |
| 20260507150554 | 54 | 151 | 7.8 | 13.0 | 0.00 | 0.00 | 0.00 | 85 | 1013.7 |
| 20260507150044 | 54 | 148 | 10.4 | 13.0 | 0.00 | 0.00 | 0.00 | 85 | 1013.7 |
| 20260507145534 | 54 | 148 | 9.6 | 13.9 | 0.00 | 0.00 | 0.00 | 85 | 1013.7 |
| 20260507145027 | 54 | 149 | 11.3 | 13.9 | 0.00 | 0.00 | 0.00 | 85 | 1013.8 |
| 20260507144513 | 54 | 150 | 9.6 | 13.0 | 0.00 | 0.00 | 0.00 | 84 | 1013.8 |
| 20260507144105 | 54 | 150 | 9.6 | 13.0 | 0.00 | 0.00 | 0.00 | 85 | 1013.8 |
| 20260507143542 | 54 | 150 | 10.4 | 13.9 | 0.00 | 0.00 | 0.00 | 85 | 1013.8 |
| 20260507143038 | 54 | 146 | 9.6 | 13.9 | 0.00 | 0.00 | 0.00 | 85 | 1013.9 |
| 20260507142524 | 54 | 152 | 10.4 | 13.0 | 0.00 | 0.00 | 0.00 | 85 | 1013.9 |
| 20260507142022 | 54 | 142 | 10.4 | 13.0 | 0.00 | 0.00 | 0.00 | 85 | 1013.9 |
| 20260507141502 | 54 | 149 | 9.6 | 13.9 | 0.00 | 0.00 | 0.00 | 85 | 1014.0 |
| 20260507141054 | 54 | 146 | 10.4 | 14.8 | 0.00 | 0.00 | 0.00 | 85 | 1014.1 |
| 20260507140544 | 54 | 144 | 11.3 | 14.8 | 0.00 | 0.00 | 0.00 | 84 | 1014.1 |
| 20260507140035 | 54 | 156 | 11.3 | 14.8 | 0.00 | 0.00 | 0.00 | 84 | 1014.1 |
| 20260507135523 | 54 | 158 | 9.6 | 14.8 | 0.00 | 0.00 | 0.00 | 84 | 1014.1 |
| 20260507135013 | 54 | 155 | 10.4 | 13.9 | 0.00 | 0.00 | 0.00 | 85 | 1014.1 |
| 20260507134503 | 54 | 184 | 9.6 | 13.0 | 0.00 | 0.00 | 0.00 | 84 | 1014.1 |
| 20260507134055 | 54 | 154 | 9.6 | 13.0 | 0.00 | 0.00 | 0.00 | 84 | 1014.1 |
| 20260507133534 | 54 | 154 | 9.6 | 13.0 | 0.00 | 0.00 | 0.00 | 84 | 1014.1 |
| 20260507133030 | 54 | 149 | 8.7 | 12.2 | 0.00 | 0.00 | 0.00 | 84 | 1014.1 |
| 20260507132520 | 54 | 159 | 8.7 | 13.0 | 0.00 | 0.00 | 0.00 | 84 | 1014.1 |
| 20260507132003 | 54 | 153 | 10.4 | 13.0 | 0.00 | 0.00 | 0.00 | 84 | 1014.1 |
| 20260507131557 | 54 | 157 | 9.6 | 12.2 | 0.00 | 0.00 | 0.00 | 84 | 1014.1 |
| 20260507131043 | 55 | 167 | 7.8 | 12.2 | 0.00 | 0.00 | 0.00 | 84 | 1014.1 |
| 20260507130536 | 54 | 185 | 7.8 | 12.2 | 0.00 | 0.00 | 0.00 | 84 | 1014.1 |
| 20260507130022 | 55 | 145 | 7.8 | 12.2 | 0.00 | 0.00 | 0.00 | 84 | 1014.2 |
| 20260507125514 | 54 | 160 | 8.7 | 12.2 | 0.00 | 0.00 | 0.00 | 84 | 1014.3 |
| 20260507125004 | 54 | 150 | 8.7 | 12.2 | 0.00 | 0.00 | 0.00 | 83 | 1014.2 |
| 20260507124601 | 54 | 157 | 7.8 | 12.2 | 0.00 | 0.00 | 0.00 | 83 | 1014.2 |
| 20260507124044 | 55 | 175 | 7.8 | 13.0 | 0.00 | 0.00 | 0.00 | 84 | 1014.2 |
| 20260507123526 | 54 | 148 | 8.7 | 12.2 | 0.00 | 0.00 | 0.00 | 84 | 1014.2 |
| 20260507123014 | 54 | 150 | 7.8 | 12.2 | 0.00 | 0.00 | 0.00 | 84 | 1014.2 |
| 20260507122502 | 54 | 154 | 8.7 | 12.2 | 0.00 | 0.00 | 0.00 | 83 | 1014.3 |
| 20260507122054 | 54 | 150 | 7.8 | 11.3 | 0.00 | 0.00 | 0.00 | 83 | 1014.3 |
| 20260507121545 | 54 | 150 | 7.8 | 12.2 | 0.00 | 0.00 | 0.00 | 83 | 1014.3 |
| 20260507121034 | 54 | 205 | 7.0 | 9.6 | 0.00 | 0.00 | 0.00 | 83 | 1014.4 |
| 20260507120524 | 54 | 153 | 7.0 | 10.4 | 0.00 | 0.00 | 0.00 | 83 | 1014.4 |
| 20260507120014 | 54 | 163 | 7.8 | 11.3 | 0.00 | 0.00 | 0.00 | 83 | 1014.4 |
| 20260507115504 | 55 | 145 | 6.1 | 9.6 | 0.00 | 0.00 | 0.00 | 84 | 1014.5 |
| 20260507115055 | 54 | 174 | 6.1 | 8.7 | 0.00 | 0.00 | 0.00 | 83 | 1014.5 |
| 20260507114558 | 54 | 149 | 7.8 | 10.4 | 0.00 | 0.00 | 0.00 | 83 | 1014.5 |
| 20260507114035 | 54 | 160 | 7.0 | 11.3 | 0.00 | 0.00 | 0.00 | 83 | 1014.5 |
| 20260507113513 | 54 | 159 | 7.0 | 11.3 | 0.00 | 0.00 | 0.00 | 83 | 1014.5 |
| 20260507113010 | 54 | 151 | 9.6 | 12.2 | 0.00 | 0.00 | 0.00 | 82 | 1014.5 |
| 20260507112555 | 54 | 159 | 7.0 | 13.0 | 0.00 | 0.00 | 0.00 | 82 | 1014.5 |
| 20260507112050 | 54 | 160 | 8.7 | 13.0 | 0.00 | 0.00 | 0.00 | 82 | 1014.5 |
| 20260507111536 | 54 | 148 | 7.8 | 12.2 | 0.00 | 0.00 | 0.00 | 82 | 1014.5 |
| 20260507111025 | 54 | 148 | 7.8 | 12.2 | 0.00 | 0.00 | 0.00 | 81 | 1014.6 |
| 20260507110515 | 54 | 152 | 8.7 | 10.4 | 0.00 | 0.00 | 0.00 | 81 | 1014.5 |
| 20260507110005 | 54 | 144 | 7.8 | 10.4 | 0.00 | 0.00 | 0.00 | 81 | 1014.6 |
| 20260507105556 | 54 | 146 | 7.8 | 12.2 | 0.00 | 0.00 | 0.00 | 81 | 1014.6 |
| 20260507105049 | 54 | 144 | 9.6 | 12.2 | 0.00 | 0.00 | 0.00 | 82 | 1014.6 |
| 20260507104537 | 54 | 155 | 8.7 | 12.2 | 0.00 | 0.00 | 0.00 | 81 | 1014.6 |
| 20260507104016 | 54 | 156 | 7.8 | 13.0 | 0.00 | 0.00 | 0.00 | 83 | 1014.6 |
| 20260507103505 | 54 | 142 | 9.6 | 13.0 | 0.00 | 0.00 | 0.00 | 82 | 1014.5 |
| 20260507103058 | 54 | 141 | 10.4 | 12.2 | 0.00 | 0.00 | 0.00 | 82 | 1014.5 |
| 20260507102546 | 54 | 153 | 9.6 | 12.2 | 0.00 | 0.00 | 0.00 | 83 | 1014.5 |
| 20260507102036 | 54 | 160 | 10.4 | 13.0 | 0.00 | 0.00 | 0.00 | 83 | 1014.5 |
| 20260507101534 | 54 | 142 | 11.3 | 13.0 | 0.00 | 0.00 | 0.00 | 83 | 1014.5 |
| 20260507101017 | 54 | 139 | 11.3 | 13.0 | 0.00 | 0.00 | 0.00 | 83 | 1014.4 |
| 20260507100506 | 54 | 145 | 11.3 | 13.0 | 0.00 | 0.00 | 0.00 | 83 | 1014.5 |
| 20260507100058 | 54 | 162 | 9.6 | 13.9 | 0.00 | 0.00 | 0.00 | 83 | 1014.5 |
| 20260507095550 | 53 | 148 | 10.4 | 14.8 | 0.00 | 0.00 | 0.00 | 83 | 1014.5 |
| 20260507095038 | 53 | 146 | 11.3 | 14.8 | 0.00 | 0.00 | 0.00 | 83 | 1014.5 |
| 20260507094534 | 53 | 147 | 12.2 | 14.8 | 0.00 | 0.00 | 0.00 | 83 | 1014.5 |
| 20260507094012 | 53 | 140 | 12.2 | 13.9 | 0.00 | 0.00 | 0.00 | 83 | 1014.4 |
| 20260507093558 | 53 | 148 | 11.3 | 13.9 | 0.00 | 0.00 | 0.00 | 83 | 1014.4 |
| 20260507093048 | 53 | 142 | 10.4 | 13.9 | 0.00 | 0.00 | 0.00 | 83 | 1014.4 |
| 20260507092538 | 53 | 139 | 11.3 | 13.0 | 0.00 | 0.00 | 0.00 | 83 | 1014.4 |
| 20260507092028 | 53 | 132 | 11.3 | 13.0 | 0.00 | 0.00 | 0.00 | 83 | 1014.3 |
| 20260507091520 | 53 | 143 | 10.4 | 13.0 | 0.00 | 0.00 | 0.00 | 83 | 1014.3 |
| 20260507091008 | 53 | 148 | 9.6 | 13.9 | 0.00 | 0.00 | 0.00 | 83 | 1014.3 |
| 20260507090600 | 53 | 149 | 10.4 | 13.9 | 0.00 | 0.00 | 0.00 | 83 | 1014.3 |
| 20260507090046 | 53 | 142 | 10.4 | 13.9 | 0.00 | 0.00 | 0.00 | 82 | 1014.3 |
| 20260507085536 | 53 | 153 | 10.4 | 13.0 | 0.00 | 0.00 | 0.00 | 82 | 1014.4 |
| 20260507085026 | 53 | 150 | 9.6 | 13.9 | 0.00 | 0.00 | 0.00 | 82 | 1014.3 |
| 20260507084519 | 53 | 149 | 10.4 | 14.8 | 0.00 | 0.00 | 0.00 | 82 | 1014.4 |
| 20260507084107 | 53 | 136 | 13.0 | 14.8 | 0.00 | 0.00 | 0.00 | 82 | 1014.3 |
| 20260507083546 | 53 | 145 | 9.6 | 13.9 | 0.00 | 0.00 | 0.00 | 82 | 1014.4 |
| 20260507083036 | 53 | 153 | 10.4 | 13.9 | 0.00 | 0.00 | 0.00 | 82 | 1014.4 |
| 20260507082527 | 53 | 148 | 10.4 | 13.9 | 0.00 | 0.00 | 0.00 | 82 | 1014.4 |
| 20260507082016 | 53 | 146 | 9.6 | 13.0 | 0.00 | 0.00 | 0.00 | 82 | 1014.4 |
| 20260507081506 | 53 | 143 | 10.4 | 14.8 | 0.00 | 0.00 | 0.00 | 82 | 1014.3 |
| 20260507081102 | 53 | 143 | 11.3 | 14.8 | 0.00 | 0.00 | 0.00 | 82 | 1014.3 |
| 20260507080548 | 53 | 145 | 11.3 | 14.8 | 0.00 | 0.00 | 0.00 | 82 | 1014.2 |
| 20260507080039 | 53 | 140 | 11.3 | 14.8 | 0.00 | 0.00 | 0.00 | 82 | 1014.3 |
| 20260507075527 | 52 | 142 | 11.3 | 14.8 | 0.00 | 0.00 | 0.00 | 83 | 1014.3 |
| 20260507075017 | 52 | 148 | 11.3 | 13.9 | 0.00 | 0.00 | 0.00 | 84 | 1014.3 |
| 20260507074504 | 52 | 137 | 11.3 | 13.9 | 0.00 | 0.00 | 0.00 | 85 | 1014.3 |
| 20260507074055 | 52 | 120 | 10.4 | 13.0 | 0.00 | 0.00 | 0.00 | 87 | 1014.3 |
| 20260507073535 | 52 | 120 | 11.3 | 13.9 | 0.00 | 0.00 | 0.00 | 87 | 1014.2 |
| 20260507073024 | 52 | 132 | 11.3 | 13.9 | 0.00 | 0.00 | 0.00 | 87 | 1014.3 |
| 20260507072514 | 52 | 128 | 9.6 | 11.3 | 0.00 | 0.00 | 0.00 | 87 | 1014.3 |
| 20260507072004 | 52 | 125 | 7.8 | 11.3 | 0.00 | 0.00 | 0.00 | 87 | 1014.3 |
| 20260507071555 | 52 | 120 | 8.7 | 11.3 | 0.00 | 0.00 | 0.00 | 87 | 1014.3 |
| 20260507071045 | 52 | 117 | 8.7 | 11.3 | 0.00 | 0.00 | 0.00 | 86 | 1014.3 |
| 20260507070535 | 52 | 123 | 9.6 | 11.3 | 0.00 | 0.00 | 0.00 | 87 | 1014.2 |
| 20260507070038 | 52 | 112 | 8.7 | 11.3 | 0.00 | 0.00 | 0.00 | 86 | 1014.2 |
| 20260507065514 | 52 | 114 | 8.7 | 11.3 | 0.00 | 0.00 | 0.00 | 86 | 1014.2 |
| 20260507065006 | 52 | 119 | 8.7 | 11.3 | 0.00 | 0.00 | 0.00 | 86 | 1014.2 |
| 20260507064559 | 52 | 109 | 8.7 | 11.3 | 0.00 | 0.00 | 0.00 | 86 | 1014.2 |
| 20260507064047 | 52 | 112 | 9.6 | 11.3 | 0.00 | 0.00 | 0.00 | 86 | 1014.1 |
| 20260507063526 | 51 | 111 | 8.7 | 11.3 | 0.00 | 0.00 | 0.00 | 87 | 1014.1 |
| 20260507063015 | 51 | 112 | 7.8 | 10.4 | 0.00 | 0.00 | 0.00 | 87 | 1014.1 |
| 20260507062505 | 51 | 101 | 7.0 | 8.7 | 0.00 | 0.00 | 0.00 | 88 | 1014.0 |
| 20260507062057 | 51 | 90 | 7.0 | 8.7 | 0.00 | 0.00 | 0.00 | 87 | 1014.1 |
| 20260507061547 | 50 | 76 | 6.1 | 9.6 | 0.00 | 0.00 | 0.00 | 88 | 1014.1 |
| 20260507061036 | 50 | 82 | 7.8 | 9.6 | 0.00 | 0.00 | 0.00 | 87 | 1014.0 |
| 20260507060526 | 50 | 76 | 6.1 | 9.6 | 0.00 | 0.00 | 0.00 | 87 | 1014.1 |
| 20260507060020 | 50 | 79 | 7.0 | 9.6 | 0.00 | 0.00 | 0.00 | 86 | 1014.0 |
| 20260507055507 | 50 | 67 | 7.8 | 10.4 | 0.00 | 0.00 | 0.00 | 86 | 1013.9 |
| 20260507055101 | 50 | 65 | 7.8 | 10.4 | 0.00 | 0.00 | 0.00 | 86 | 1013.9 |
| 20260507054548 | 50 | 75 | 7.8 | 9.6 | 0.00 | 0.00 | 0.00 | 86 | 1013.9 |
| 20260507054038 | 50 | 72 | 7.0 | 9.6 | 0.00 | 0.00 | 0.00 | 86 | 1013.8 |
| 20260507053517 | 50 | 69 | 7.0 | 10.4 | 0.00 | 0.00 | 0.00 | 86 | 1013.8 |
| 20260507053006 | 50 | 73 | 7.8 | 10.4 | 0.00 | 0.00 | 0.00 | 86 | 1013.8 |
| 20260507052557 | 50 | 64 | 7.8 | 10.4 | 0.00 | 0.00 | 0.00 | 86 | 1013.7 |
| 20260507052047 | 49 | 56 | 8.7 | 11.3 | 0.00 | 0.00 | 0.00 | 85 | 1013.7 |
| 20260507051537 | 49 | 58 | 9.6 | 10.4 | 0.00 | 0.00 | 0.00 | 85 | 1013.7 |
| 20260507051026 | 50 | 60 | 8.7 | 11.3 | 0.00 | 0.00 | 0.00 | 85 | 1013.7 |
| 20260507050516 | 50 | 61 | 7.8 | 10.4 | 0.00 | 0.00 | 0.00 | 84 | 1013.7 |
| 20260507050015 | 50 | 64 | 7.8 | 10.4 | 0.00 | 0.00 | 0.00 | 84 | 1013.7 |
| 20260507045600 | 49 | 60 | 7.0 | 11.3 | 0.00 | 0.00 | 0.00 | 84 | 1013.7 |
| 20260507045048 | 50 | 55 | 8.7 | 11.3 | 0.00 | 0.00 | 0.00 | 84 | 1013.6 |
| 20260507044551 | 50 | 65 | 8.7 | 11.3 | 0.00 | 0.00 | 0.00 | 84 | 1013.6 |
| 20260507044029 | 50 | 60 | 8.7 | 11.3 | 0.00 | 0.00 | 0.00 | 83 | 1013.6 |
| 20260507043505 | 50 | 58 | 8.7 | 11.3 | 0.00 | 0.00 | 0.00 | 83 | 1013.5 |
| 20260507043058 | 50 | 52 | 8.7 | 11.3 | 0.00 | 0.00 | 0.00 | 84 | 1013.5 |
| 20260507042548 | 50 | 58 | 8.7 | 11.3 | 0.00 | 0.00 | 0.00 | 83 | 1013.5 |
| 20260507042037 | 50 | 40 | 9.6 | 11.3 | 0.00 | 0.00 | 0.00 | 83 | 1013.5 |
| 20260507041527 | 50 | 59 | 9.6 | 11.3 | 0.00 | 0.00 | 0.00 | 83 | 1013.5 |
| 20260507041019 | 50 | 53 | 9.6 | 11.3 | 0.00 | 0.00 | 0.00 | 83 | 1013.5 |
| 20260507040507 | 50 | 47 | 9.6 | 11.3 | 0.00 | 0.00 | 0.00 | 83 | 1013.5 |
| 20260507040105 | 50 | 55 | 8.7 | 11.3 | 0.00 | 0.00 | 0.00 | 82 | 1013.5 |
| 20260507035548 | 50 | 52 | 8.7 | 11.3 | 0.00 | 0.00 | 0.00 | 82 | 1013.5 |
| 20260507035038 | 50 | 58 | 8.7 | 11.3 | 0.00 | 0.00 | 0.00 | 83 | 1013.5 |
| 20260507034530 | 50 | 53 | 8.7 | 11.3 | 0.00 | 0.00 | 0.00 | 83 | 1013.4 |
| 20260507034006 | 50 | 44 | 8.7 | 11.3 | 0.00 | 0.00 | 0.00 | 82 | 1013.4 |
| 20260507033558 | 50 | 40 | 8.7 | 11.3 | 0.00 | 0.00 | 0.00 | 82 | 1013.4 |
| 20260507033100 | 50 | 55 | 8.7 | 10.4 | 0.00 | 0.00 | 0.00 | 82 | 1013.4 |
| 20260507032537 | 50 | 43 | 7.8 | 9.6 | 0.00 | 0.00 | 0.00 | 81 | 1013.4 |
| 20260507032038 | 50 | 41 | 7.8 | 10.4 | 0.00 | 0.00 | 0.00 | 81 | 1013.4 |
| 20260507031519 | 50 | 38 | 7.8 | 10.4 | 0.00 | 0.00 | 0.00 | 81 | 1013.4 |
| 20260507031011 | 50 | 35 | 8.7 | 10.4 | 0.00 | 0.00 | 0.00 | 81 | 1013.4 |
| 20260507030559 | 50 | 48 | 7.8 | 10.4 | 0.00 | 0.00 | 0.00 | 80 | 1013.4 |
| 20260507030106 | 50 | 36 | 7.8 | 10.4 | 0.00 | 0.00 | 0.00 | 80 | 1013.4 |
| 20260507025539 | 50 | 49 | 8.7 | 10.4 | 0.00 | 0.00 | 0.00 | 80 | 1013.3 |
| 20260507025028 | 50 | 41 | 8.7 | 11.3 | 0.00 | 0.00 | 0.00 | 79 | 1013.2 |
| 20260507024521 | 50 | 35 | 9.6 | 11.3 | 0.00 | 0.00 | 0.00 | 79 | 1013.2 |
| 20260507024111 | 51 | 46 | 9.6 | 11.3 | 0.00 | 0.00 | 0.00 | 79 | 1013.2 |
| 20260507023549 | 51 | 37 | 8.7 | 12.2 | 0.00 | 0.00 | 0.00 | 79 | 1013.2 |
| 20260507023039 | 51 | 38 | 9.6 | 12.2 | 0.00 | 0.00 | 0.00 | 79 | 1013.2 |
| 20260507022529 | 52 | 58 | 8.7 | 12.2 | 0.00 | 0.00 | 0.00 | 79 | 1013.2 |
| 20260507022019 | 51 | 54 | 9.6 | 12.2 | 0.00 | 0.00 | 0.00 | 78 | 1013.2 |
| 20260507021508 | 52 | 57 | 8.7 | 13.0 | 0.00 | 0.00 | 0.00 | 78 | 1013.2 |
| 20260507021104 | 52 | 57 | 8.7 | 13.0 | 0.00 | 0.00 | 0.00 | 78 | 1013.2 |
| 20260507020551 | 52 | 67 | 10.4 | 12.2 | 0.00 | 0.00 | 0.00 | 78 | 1013.2 |
| 20260507020053 | 52 | 69 | 10.4 | 13.0 | 0.00 | 0.00 | 0.00 | 77 | 1013.1 |
| 20260507015529 | 52 | 63 | 9.6 | 13.0 | 0.00 | 0.00 | 0.00 | 77 | 1013.1 |
| 20260507015021 | 52 | 62 | 10.4 | 12.2 | 0.00 | 0.00 | 0.00 | 77 | 1013.1 |
| 20260507014510 | 52 | 66 | 8.7 | 12.2 | 0.00 | 0.00 | 0.00 | 77 | 1013.1 |
| 20260507014102 | 52 | 59 | 9.6 | 12.2 | 0.00 | 0.00 | 0.00 | 77 | 1013.1 |
| 20260507013543 | 52 | 80 | 10.4 | 12.2 | 0.00 | 0.00 | 0.00 | 76 | 1013.1 |
| 20260507013036 | 52 | 70 | 9.6 | 13.0 | 0.00 | 0.00 | 0.00 | 77 | 1013.0 |
| 20260507012523 | 53 | 69 | 10.4 | 12.2 | 0.00 | 0.00 | 0.00 | 76 | 1013.0 |
| 20260507012011 | 52 | 71 | 10.4 | 13.0 | 0.00 | 0.00 | 0.00 | 76 | 1013.0 |
| 20260507011602 | 53 | 71 | 10.4 | 13.0 | 0.00 | 0.00 | 0.00 | 76 | 1013.1 |
| 20260507011048 | 52 | 64 | 10.4 | 13.9 | 0.00 | 0.00 | 0.00 | 75 | 1013.1 |
| 20260507010537 | 52 | 70 | 11.3 | 13.9 | 0.00 | 0.00 | 0.00 | 75 | 1013.1 |
| 20260507010034 | 52 | 66 | 11.3 | 13.9 | 0.00 | 0.00 | 0.00 | 75 | 1013.1 |
| 20260507005517 | 53 | 68 | 10.4 | 13.9 | 0.00 | 0.00 | 0.00 | 75 | 1013.1 |
| 20260507005010 | 53 | 67 | 12.2 | 13.9 | 0.00 | 0.00 | 0.00 | 74 | 1013.0 |
| 20260507004559 | 53 | 73 | 12.2 | 13.9 | 0.00 | 0.00 | 0.00 | 74 | 1013.0 |
| 20260507004049 | 53 | 71 | 10.4 | 13.9 | 0.00 | 0.00 | 0.00 | 74 | 1013.0 |
| 20260507003527 | 53 | 68 | 10.4 | 13.9 | 0.00 | 0.00 | 0.00 | 74 | 1013.1 |
| 20260507003018 | 53 | 71 | 11.3 | 13.9 | 0.00 | 0.00 | 0.00 | 74 | 1013.1 |
| 20260507002507 | 53 | 69 | 11.3 | 13.9 | 0.00 | 0.00 | 0.00 | 73 | 1013.1 |
| 20260507002059 | 53 | 76 | 11.3 | 13.9 | 0.00 | 0.00 | 0.00 | 73 | 1013.1 |
| 20260507001546 | 53 | 71 | 11.3 | 13.9 | 0.00 | 0.00 | 0.00 | 74 | 1013.1 |
| 20260507001036 | 53 | 82 | 11.3 | 13.9 | 0.00 | 0.00 | 0.00 | 73 | 1013.1 |
| 20260507000526 | 53 | 71 | 9.6 | 12.2 | 0.00 | 0.00 | 0.00 | 74 | 1013.2 |
| 20260507000016 | 53 | 59 | 6.1 | 8.7 | 0.00 | 0.00 | 0.00 | 74 | 1013.2 |
| 20260506235507 | 53 | 54 | 6.1 | 8.7 | 0.00 | 0.00 | 0.00 | 75 | 1013.2 |
| 20260506235058 | 53 | 41 | 6.1 | 8.7 | 0.00 | 0.00 | 0.00 | 75 | 1013.2 |
| 20260506234555 | 53 | 13 | 6.1 | 7.8 | 0.00 | 0.00 | 0.00 | 75 | 1013.2 |
| 20260506234037 | 52 | 21 | 7.0 | 7.8 | 0.00 | 0.00 | 0.00 | 75 | 1013.1 |
| 20260506233516 | 52 | 341 | 4.3 | 7.0 | 0.00 | 0.00 | 0.00 | 75 | 1013.1 |
| 20260506233006 | 52 | 309 | 2.6 | 7.0 | 0.00 | 0.00 | 0.00 | 75 | 1013.1 |
| 20260506232558 | 52 | 313 | 3.5 | 7.0 | 0.00 | 0.00 | 0.00 | 75 | 1013.1 |
| 20260506232048 | 52 | 332 | 3.5 | 7.0 | 0.00 | 0.00 | 0.00 | 75 | 1013.1 |
| 20260506231537 | 52 | 302 | 3.5 | 7.0 | 0.00 | 0.00 | 0.00 | 75 | 1013.1 |
| 20260506231027 | 52 | 323 | 3.5 | 7.0 | 0.00 | 0.00 | 0.00 | 75 | 1013.2 |
| 20260506230517 | 52 | 300 | 3.5 | 7.0 | 0.00 | 0.00 | 0.00 | 75 | 1013.2 |
| 20260506230008 | 52 | 302 | 3.5 | 7.8 | 0.00 | 0.00 | 0.00 | 75 | 1013.1 |
| 20260506225601 | 52 | 309 | 4.3 | 7.8 | 0.00 | 0.00 | 0.00 | 75 | 1013.1 |
| 20260506225049 | 52 | 295 | 5.2 | 7.8 | 0.00 | 0.00 | 0.00 | 75 | 1013.1 |
| 20260506224541 | 52 | 322 | 4.3 | 7.0 | 0.00 | 0.00 | 0.00 | 75 | 1013.1 |
| 20260506224017 | 52 | 298 | 4.3 | 7.0 | 0.00 | 0.00 | 0.00 | 75 | 1013.0 |
| 20260506223507 | 52 | 301 | 5.2 | 7.8 | 0.00 | 0.00 | 0.00 | 75 | 1013.0 |
| 20260506223100 | 52 | 321 | 3.5 | 7.8 | 0.00 | 0.00 | 0.00 | 75 | 1013.1 |
| 20260506222552 | 52 | 297 | 4.3 | 7.8 | 0.00 | 0.00 | 0.00 | 74 | 1013.1 |
| 20260506222042 | 52 | 300 | 4.3 | 7.8 | 0.00 | 0.00 | 0.00 | 74 | 1013.0 |
| 20260506221528 | 52 | 303 | 4.3 | 8.7 | 0.00 | 0.00 | 0.00 | 74 | 1013.0 |
| 20260506221018 | 52 | 265 | 5.2 | 10.4 | 0.00 | 0.00 | 0.00 | 74 | 1013.0 |
| 20260506220508 | 52 | 296 | 6.1 | 10.4 | 0.00 | 0.00 | 0.00 | 74 | 1013.0 |
| 20260506215549 | 52 | 296 | 6.1 | 9.6 | 0.00 | 0.00 | 0.00 | 74 | 1012.9 |
| 20260506215039 | 51 | 297 | 7.0 | 9.6 | 0.00 | 0.00 | 0.00 | 75 | 1012.9 |
| 20260506214530 | 51 | 281 | 6.1 | 9.6 | 0.00 | 0.00 | 0.00 | 76 | 1012.9 |
| 20260506214010 | 52 | 326 | 5.2 | 9.6 | 0.00 | 0.00 | 0.00 | 76 | 1012.9 |
| 20260506213600 | 52 | 315 | 5.2 | 9.6 | 0.00 | 0.00 | 0.00 | 76 | 1012.9 |